Location: Sternwarte auf dem Internationalen Platz Vogelsang IP
(50.5721°N, 6.4398°E)
Time: 17:15:00
(UTC+01:00)

Transit 2A Rocket - Pass Details

Date: 19 December 2025
Orbit: 581 x 903 km, 66.7° (Epoch: 16 January)

Event Time Altitude Azimuth Distance (km) Brightness Sun altitude
Rises 13:57:15 0° 320° (NW) 3,531 8.1 13.6°
Reaches altitude 10° 14:00:09 10° 331° (NNW) 2,591 7.4 13.5°
Maximum altitude 14:05:22 29° 30° (NNE) 1,590 6.2 13.2°
Drops below altitude 10° 14:10:26 10° 90° (E) 2,516 7.5 12.8°
Sets 14:13:12 0° 101° (E) 3,411 8.2 12.7°
